20050714,000010,1308715,33.503311,-122.489973,17.5,17.445,33.016,43.039,680.89,0.0,0.651,17.079,17.043, NaN,23.887,   NaN,16.62,1014.69,94.99,16.96,63.0,80.7,9.3,6.4,340.6,6.3,8.7,7.7,NaN, NaN,16.1,216.3,226.7,1121299210,1121299210,1,10.1,000009,000010,244.1,33.503318,-122.489900,9.49,NaN,NaN,17.449, NaN,NaN,NaN, NaN, NaN
20050714,000039,1308745,33.502671,-122.491438,17.7,17.445,33.015,43.037,709.35,0.0,0.651,17.080,17.042, NaN,23.886,   NaN,16.58,1014.68,94.89,16.95,62.8,68.5,9.6,6.3,339.8,1.1,8.9,6.9,NaN, NaN,16.7,241.5,243.0,1121299239,1121299239,1,9.4,000039,000039,242.9,33.502710,-122.491311,9.81,NaN,NaN,17.449, NaN,NaN,NaN, NaN, NaN
20050714,000109,1308774,33.501991,-122.492938,17.9,17.447,33.017,43.042,725.47,0.0,0.651,17.079,17.042, NaN,23.888,   NaN,16.54,1014.65,94.85,16.90,66.3,57.9,9.6,5.0,343.8,10.8,9.1,5.5,NaN, NaN,15.4,265.9,243.5,1121299269,1121299269,1,10.9,000069,000069,246.8,33.502010,-122.492818,10.20,NaN,NaN,17.451, NaN,NaN,NaN, NaN, NaN
20050714,000140,1308806,33.501353,-122.494451,17.6,17.446,33.018,43.042,753.50,0.0,0.708,17.079,17.042, NaN,23.888,   NaN,16.60,1014.71,94.99,16.93,62.9,58.7,9.0,4.6,343.9,15.6,8.4,5.4,NaN, NaN,15.5,228.9,239.0,1121299300,1121299300,1,10.3,000099,000100,241.3,33.501356,-122.494371,10.03,NaN,NaN,17.450, NaN,NaN,NaN, NaN, NaN
20050714,000210,1308836,33.500660,-122.495926,17.6,17.440,33.018,43.036,777.82,0.0,0.708,17.079,17.042, NaN,23.889,   NaN,16.64,1014.80,94.93,16.97,65.0,68.5,9.0,5.2,344.2,9.2,8.5,6.2,NaN, NaN,15.6,225.4,247.9,1121299329,1121299329,1,9.9,000129,000129,244.7,33.500691,-122.495808,9.97,NaN,NaN,17.444, NaN,NaN,NaN, NaN, NaN
20050714,000239,1308865,33.499983,-122.497411,17.6,17.441,33.015,43.033,804.88,0.0,0.670,17.076,17.041, NaN,23.887,   NaN,16.62,1014.79,94.86,16.97,66.7,68.9,9.5,5.9,343.7,3.4,9.1,6.6,NaN, NaN,14.9,249.6,245.9,1121299359,1121299359,1,10.5,000159,000159,245.1,33.500008,-122.497290,9.83,NaN,NaN,17.445, NaN,NaN,NaN, NaN, NaN
20050714,000310,1308895,33.499291,-122.498930,17.3,17.438,33.018,43.035,858.26,0.0,0.689,17.075,17.040, NaN,23.890,   NaN,16.64,1014.65,94.88,16.96,70.0,76.0,9.2,5.9,347.7,9.1,9.1,7.2,NaN, NaN,15.8,222.6,250.7,1121299390,1121299390,1,9.0,000190,000190,244.5,33.499325,-122.498805,10.20,NaN,NaN,17.442, NaN,NaN,NaN, NaN, NaN
20050714,000339,1308925,33.498670,-122.500345,17.7,17.437,33.016,43.030,855.94,0.0,0.689,17.074,17.040, NaN,23.888,   NaN,16.61,1014.79,94.71,16.93,67.8,80.9,9.3,4.9,345.6,16.9,9.0,6.7,NaN, NaN,16.4,240.2,246.3,1121299419,1121299419,1,10.3,000219,000219,245.4,33.498693,-122.500221,9.86,NaN,NaN,17.441, NaN,NaN,NaN, NaN, NaN
20050714,000409,1308954,33.497998,-122.501841,17.9,17.437,33.015,43.029,827.78,0.0,0.670,17.073,17.040, NaN,23.888,   NaN,16.65,1014.68,94.68,16.96,65.9,75.1,9.1,5.0,344.4,13.6,8.6,6.3,NaN, NaN,14.9,252.7,253.7,1121299449,1121299449,1,10.0,000249,000249,244.2,33.498016,-122.501715,10.29,NaN,NaN,17.441, NaN,NaN,NaN, NaN, NaN
20050714,000440,1308986,33.497301,-122.503368,17.7,17.434,33.012,43.024,875.24,0.0,0.670,17.073,17.039, NaN,23.887,   NaN,16.65,1014.70,94.55,16.98,65.6,74.2,9.1,4.9,344.8,12.6,8.7,6.2,NaN, NaN,14.5,253.8,245.5,1121299480,1121299480,1,10.3,000280,000280,244.8,33.497323,-122.503240,10.26,NaN,NaN,17.438, NaN,NaN,NaN, NaN, NaN
20050714,000509,1309015,33.496671,-122.504773,17.4,17.434,33.015,43.027,1021.33,0.0,0.670,17.071,17.039, NaN,23.889,   NaN,16.62,1014.67,94.30,16.95,65.5,74.4,9.2,5.4,343.6,8.6,8.8,6.6,NaN, NaN,15.1,240.0,248.6,1121299509,1121299509,1,9.9,000309,000309,244.5,33.496698,-122.504643,9.68,NaN,NaN,17.438, NaN,NaN,NaN, NaN, NaN
20050714,000539,1309045,33.495998,-122.506233,17.6,17.434,33.013,43.025,1094.20,0.0,0.633,17.071,17.038, NaN,23.887,   NaN,16.71,1014.76,94.40,17.00,63.0,65.7,9.1,5.5,341.5,4.4,8.5,6.2,NaN, NaN,15.7,245.6,241.3,1121299539,1121299539,1,10.1,000339,000339,244.0,33.496030,-122.506111,9.93,NaN,NaN,17.438, NaN,NaN,NaN, NaN, NaN
20050714,000610,1309076,33.495330,-122.507731,17.7,17.435,33.010,43.022,992.20,0.0,0.670,17.072,17.040, NaN,23.885,   NaN,16.68,1014.61,94.20,16.99,62.9,63.4,8.8,5.7,342.7,3.7,8.1,6.0,NaN, NaN,13.3,236.5,237.3,1121299570,1121299570,1,9.9,000370,000370,243.8,33.495356,-122.507608,9.93,NaN,NaN,17.439, NaN,NaN,NaN, NaN, NaN
20050714,000639,1309105,33.494700,-122.509161,17.5,17.431,33.011,43.019,914.47,0.0,0.670,17.073,17.039, NaN,23.886,   NaN,16.68,1014.70,94.22,17.01,59.6,61.5,9.0,6.1,339.0,359.7,8.0,6.1,NaN, NaN,13.4,252.1,244.1,1121299599,1121299599,1,9.7,000399,000399,242.5,33.494726,-122.509040,10.15,NaN,NaN,17.435, NaN,NaN,NaN, NaN, NaN
20050714,000709,1309134,33.494020,-122.510653,17.8,17.429,33.011,43.018,928.08,0.0,0.670,17.069,17.037, NaN,23.887,   NaN,16.66,1014.43,93.91,16.99,58.2,64.4,10.4,7.4,333.3,351.8,9.1,7.2,NaN, NaN,15.3,215.7,240.2,1121299629,1121299629,1,9.7,000429,000429,248.0,33.494050,-122.510531,10.34,NaN,NaN,17.433, NaN,NaN,NaN, NaN, NaN
20050714,000740,1309166,33.493381,-122.512155,17.7,17.429,33.013,43.019,937.28,0.0,0.651,17.068,17.033, NaN,23.888,   NaN,16.63,1014.50,93.67,16.96,62.3,65.8,11.2,7.7,334.5,350.7,10.2,7.6,NaN, NaN,13.4,244.0,241.3,1121299660,1121299660,1,10.2,000460,000460,244.2,33.493410,-122.512031,9.80,NaN,NaN,17.433, NaN,NaN,NaN, NaN, NaN
20050714,000810,1309195,33.492718,-122.513638,17.6,17.427,33.013,43.018,879.38,0.0,0.651,17.066,17.033, NaN,23.889,   NaN,16.65,1014.71,93.40,16.96,64.4,68.4,10.2,6.2,338.6,1.3,9.4,6.7,NaN, NaN,13.6,245.2,243.7,1121299690,1121299690,1,10.2,000490,000490,244.6,33.492735,-122.513511,10.18,NaN,NaN,17.431, NaN,NaN,NaN, NaN, NaN
20050714,000840,1309225,33.492063,-122.515105,17.6,17.427,33.012,43.016,842.90,0.0,0.651,17.064,17.028, NaN,23.888,   NaN,16.65,1014.47,93.13,16.94,62.7,69.4,9.9,6.2,337.9,0.7,9.0,6.7,NaN, NaN,14.1,223.5,244.8,1121299720,1121299720,1,9.5,000520,000520,242.6,33.492098,-122.514985,10.16,NaN,NaN,17.431, NaN,NaN,NaN, NaN, NaN
20050714,000910,1309256,33.491388,-122.516528,17.7,17.425,33.011,43.014,826.67,0.0,0.651,17.065,17.029, NaN,23.888,   NaN,16.69,1014.45,93.10,17.00,64.8,68.8,9.8,5.8,340.4,6.4,9.2,6.6,NaN, NaN,14.8,218.7,224.8,1121299750,1121299750,1,11.8,000549,000550,245.0,33.491383,-122.516455,10.12,NaN,NaN,17.429, NaN,NaN,NaN, NaN, NaN
20050714,000940,1309286,33.490753,-122.518040,17.6,17.427,33.011,43.016,791.31,0.0,0.651,17.064,17.026, NaN,23.887,   NaN,16.68,1014.57,92.86,17.01,66.2,67.7,10.0,5.8,342.0,4.2,9.4,6.4,NaN, NaN,12.6,253.2,254.3,1121299780,1121299780,1,9.7,000580,000580,244.5,33.490773,-122.517915,10.01,NaN,NaN,17.431, NaN,NaN,NaN, NaN, NaN
20050714,001010,1309316,33.490113,-122.519415,17.6,17.427,33.009,43.013,755.24,0.0,0.651,17.060,17.025, NaN,23.886,   NaN,16.68,1014.52,92.78,17.03,70.0,87.2,9.7,4.8,346.1,21.5,9.4,6.8,NaN, NaN,13.5,226.9,237.4,1121299810,1121299810,1,9.4,000609,000610,243.9,33.490111,-122.519331,10.07,NaN,NaN,17.431, NaN,NaN,NaN, NaN, NaN
20050714,001040,1309346,33.489490,-122.520896,17.3,17.425,33.011,43.013,744.65,0.0,0.651,17.061,17.024, NaN,23.888,   NaN,16.72,1014.47,92.93,17.03,69.3,75.5,9.8,4.8,344.8,19.4,9.5,6.3,NaN, NaN,12.6,258.3,253.3,1121299840,1121299840,1,10.4,000640,000640,244.5,33.489498,-122.520775,9.59,NaN,NaN,17.429, NaN,NaN,NaN, NaN, NaN
20050714,001110,1309375,33.488856,-122.522295,17.8,17.423,33.010,43.011,759.45,0.0,0.651,17.059,17.024, NaN,23.887,   NaN,16.72,1014.65,92.88,17.05,68.1,82.3,10.1,5.3,342.4,13.1,9.6,6.9,NaN, NaN,12.7,240.8,246.2,1121299870,1121299870,1,10.2,000669,000670,244.8,33.488850,-122.522216,9.86,NaN,NaN,17.427, NaN,NaN,NaN, NaN, NaN
20050714,001140,1309405,33.488171,-122.523771,17.3,17.420,33.011,43.009,768.18,0.0,0.651,17.057,17.021, NaN,23.889,   NaN,16.73,1014.70,93.04,17.04,66.6,73.0,9.9,5.4,341.4,9.9,9.4,6.5,NaN, NaN,14.1,241.9,247.1,1121299900,1121299900,1,9.5,000700,000700,240.8,33.488208,-122.523653,10.01,NaN,NaN,17.424, NaN,NaN,NaN, NaN, NaN
20050714,001210,1309436,33.487281,-122.525023,17.4,17.418,33.009,43.005,749.43,0.0,0.670,17.056,17.019, NaN,23.888,   NaN,16.73,1014.75,93.06,17.07,72.9,73.4,9.2,4.8,341.1,10.0,9.2,6.4,NaN, NaN,13.9,228.3,226.1,1121299930,1121299930,1,10.2,000730,000730,226.6,33.487335,-122.524918,NaN,NaN,NaN,17.422, NaN,NaN,NaN, NaN, NaN
20050714,001240,1309466,33.486290,-122.526228,17.8,17.416,33.012,43.006,715.18,0.0,0.670,17.055,17.017, NaN,23.891,   NaN,16.77,1014.81,93.45,17.08,78.9,75.4,8.1,3.1,342.0,18.5,8.9,5.8,NaN, NaN,14.5,223.6,230.9,1121299960,1121299960,1,9.7,000760,000760,225.3,33.486348,-122.526125,NaN,NaN,NaN,17.420, NaN,NaN,NaN, NaN, NaN
20050714,001310,1309496,33.485295,-122.527448,17.6,17.415,33.010,43.002,679.54,0.0,0.670,17.054,17.018, NaN,23.889,   NaN,16.74,1014.82,93.33,17.10,75.1,94.8,7.4,3.2,342.4,17.7,8.1,6.4,NaN, NaN,13.5,217.1,224.5,1121299990,1121299990,1,10.8,000790,000790,229.5,33.485338,-122.527331,10.21,NaN,NaN,17.419, NaN,NaN,NaN, NaN, NaN
20050714,001340,1309525,33.484343,-122.528625,17.5,17.414,33.009,43.001,663.42,0.0,0.651,17.053,17.016, NaN,23.889,   NaN,16.72,1014.86,93.51,17.04,76.2,81.2,7.4,2.9,343.8,24.5,8.2,5.8,NaN, NaN,12.5,220.5,230.3,1121300019,1121300019,1,9.8,000819,000819,226.2,33.484398,-122.528513,10.00,NaN,NaN,17.418, NaN,NaN,NaN, NaN, NaN
20050714,001410,1309555,33.483318,-122.529866,17.5,17.411,33.009,42.998,657.43,0.0,0.670,17.052,17.013, NaN,23.889,   NaN,16.80,1014.75,93.96,17.12,68.8,85.4,6.9,2.5,340.8,28.1,7.2,5.6,NaN, NaN,12.5,207.5,230.2,1121300050,1121300050,1,9.3,000850,000850,228.8,33.483366,-122.529753,9.90,NaN,NaN,17.415, NaN,NaN,NaN, NaN, NaN
20050714,001440,1309586,33.482613,-122.530686,17.3,17.409,33.008,42.994,661.83,0.0,0.689,17.051,17.013, NaN,23.889,   NaN,16.73,1014.77,93.65,17.09,74.6,96.7,7.8,3.0,337.9,16.6,8.2,5.6,NaN, NaN,13.5,264.6,247.9,1121300080,1121300080,1,5.6,000879,000880,240.8,33.482641,-122.530593,6.86,NaN,NaN,17.413, NaN,NaN,NaN, NaN, NaN
20050714,001511,1309616,33.482308,-122.531258,17.2,17.410,33.006,42.994,665.70,0.0,0.670,17.045,17.012, NaN,23.888,   NaN,16.66,1014.79,93.72,16.98,77.3,79.7,8.4,3.6,340.7,7.0,8.8,4.4,NaN, NaN,13.3,234.0,226.8,1121300110,1121300110,1,3.5,000910,000910,271.9,33.482288,-122.531120,2.96,NaN,NaN,17.414, NaN,NaN,NaN, NaN, NaN
20050714,001540,1309646,33.482245,-122.531558,16.7,17.411,33.005,42.993,639.36,0.0,0.689,17.044,17.009, NaN,23.887,   NaN,16.68,1014.83,93.80,16.99,57.6,66.0,9.0,6.4,339.3,354.3,9.1,6.8,NaN, NaN,14.0,238.7,247.3,1121300140,1121300140,1,2.2,000940,000940,292.1,33.482175,-122.531436,1.36,NaN,NaN,17.415, NaN,NaN,NaN, NaN, NaN
20050714,001611,1309677,33.482250,-122.531778,17.4,17.421,33.005,43.003,606.34,0.0,0.670,17.041,17.009, NaN,23.884,   NaN,16.66,1014.77,93.66,16.98,39.4,43.3,9.9,10.0,338.7,342.5,9.7,9.9,NaN, NaN,14.2,34.6,14.5,1121300171,1121300170,1,1.4,000970,000970,308.8,33.482148,-122.531685,1.67,NaN,NaN,17.425, NaN,NaN,NaN, NaN, NaN
20050714,001640,1309705,33.482228,-122.531930,16.3,17.427,32.987,42.988,582.62,0.0,0.670,17.041,17.009, NaN,23.869,   NaN,16.70,1014.82,93.83,17.00,30.4,28.8,10.3,10.6,342.4,340.5,10.1,10.5,NaN, NaN,14.1,75.2,71.2,1121300200,1121300200,1,0.2,001000,001000,315.9,33.482118,-122.531845,NaN,NaN,NaN,17.431, NaN,NaN,NaN, NaN, NaN
20050714,001710,1309735,33.482281,-122.532055,16.8,17.446,32.890,42.893,574.92,0.0,0.670,17.043,17.009, NaN,23.790,   NaN,16.76,1014.98,94.02,17.08,24.8,19.3,9.3,10.0,343.3,337.8,9.2,9.7,NaN, NaN,13.5,16.1,357.4,1121300230,1121300230,1,1.3,001030,001030,320.3,33.482185,-122.531993,0.64,NaN,NaN,17.450, NaN,NaN,NaN, NaN, NaN
20050714,001741,1309767,33.482371,-122.532203,17.1,17.441,32.748,42.722,569.95,0.0,0.689,17.043,17.009, NaN,23.682,   NaN,16.74,1014.77,94.06,17.08,19.0,14.8,9.9,10.4,340.2,335.5,9.6,10.0,NaN, NaN,13.6,47.4,10.5,1121300260,1121300260,1,1.7,001060,001060,319.2,33.482280,-122.532140,1.27,NaN,NaN,17.445, NaN,NaN,NaN, NaN, NaN
20050714,001810,1309796,33.482493,-122.532405,17.0,17.431,32.844,42.825,567.11,0.0,5.182,17.042,17.009, NaN,23.759,   NaN,16.70,1014.81,94.14,17.03,11.2,12.2,10.3,10.6,333.9,334.9,9.7,10.0,NaN, NaN,12.3,318.0,324.1,1121300290,1121300290,1,2.3,001089,001090,324.6,33.482391,-122.532343,0.70,NaN,NaN,17.435, NaN,NaN,NaN, NaN, NaN
20050714,001840,1309826,33.482650,-122.532541,17.2,17.426,32.851,42.827,557.00,0.0,1.444,17.040,17.007, NaN,23.765,   NaN,16.72,1014.91,94.35,17.04,2.2,3.1,9.8,10.2,330.1,331.0,9.1,9.5,NaN, NaN,12.9,320.0,346.8,1121300320,1121300320,1,1.2,001120,001120,331.3,33.482535,-122.532481,1.00,NaN,NaN,17.430, NaN,NaN,NaN, NaN, NaN
20050714,001911,1309857,33.482835,-122.532631,17.0,17.425,32.853,42.830,523.51,0.0,1.029,17.039,17.005, NaN,23.767,   NaN,16.74,1015.05,94.48,17.05,1.3,358.6,9.7,10.2,331.7,329.3,9.1,9.4,NaN, NaN,12.3,33.3,352.7,1121300351,1121300351,1,2.2,001150,001151,328.7,33.482723,-122.532545,NaN,NaN,NaN,17.429, NaN,NaN,NaN, NaN, NaN
20050714,001941,1309887,33.482970,-122.532770,16.9,17.418,32.864,42.836,498.71,0.0,0.935,17.039,17.001, NaN,23.777,   NaN,16.72,1015.08,94.53,17.04,4.4,3.1,9.7,10.2,332.4,331.7,9.1,9.5,NaN, NaN,12.8,303.5,332.4,1121300380,1121300380,1,2.0,001180,001180,326.6,33.482856,-122.532693,1.48,NaN,NaN,17.422, NaN,NaN,NaN, NaN, NaN
20050714,002010,1309915,33.483130,-122.532955,17.2,17.412,32.935,42.913,487.50,0.0,0.784,17.037,16.999, NaN,23.833,   NaN,16.69,1014.93,94.60,17.01,2.7,5.3,9.7,10.3,330.3,332.9,9.0,9.6,NaN, NaN,13.1,29.3,341.4,1121300410,1121300410,1,1.9,001209,001210,329.8,33.483025,-122.532888,1.56,NaN,NaN,17.416, NaN,NaN,NaN, NaN, NaN
20050714,002040,1309946,33.483343,-122.533131,16.9,17.412,32.943,42.922,479.14,0.0,0.746,17.038,17.001, NaN,23.838,   NaN,16.64,1015.04,94.57,16.98,359.8,4.2,10.4,10.8,329.9,334.6,9.6,10.0,NaN, NaN,13.2,279.1,277.6,1121300440,1121300440,1,2.8,001240,001240,330.6,33.483226,-122.533060,1.90,NaN,NaN,17.416, NaN,NaN,NaN, NaN, NaN
20050714,002110,1309976,33.483575,-122.533236,17.0,17.409,32.946,42.923,477.43,0.0,0.727,17.035,16.999, NaN,23.841,   NaN,16.63,1015.10,94.63,16.96,355.9,1.0,10.4,10.5,326.3,331.8,9.6,9.8,NaN, NaN,12.3,308.3,1.0,1121300470,1121300470,1,1.7,001270,001270,327.5,33.483451,-122.533176,1.77,NaN,NaN,17.413, NaN,NaN,NaN, NaN, NaN
20050714,002140,1310006,33.483790,-122.533421,17.1,17.408,32.969,42.949,484.95,0.0,0.708,17.035,16.999, NaN,23.860,   NaN,16.67,1015.00,94.76,16.98,357.7,2.5,9.9,10.1,326.6,331.8,9.0,9.2,NaN, NaN,14.4,246.7,286.6,1121300500,1121300500,1,1.4,001299,001300,330.3,33.483671,-122.533383,1.79,NaN,NaN,17.412, NaN,NaN,NaN, NaN, NaN
20050714,002209,1310035,33.483965,-122.533573,16.6,17.407,32.980,42.961,487.46,0.0,0.708,17.036,16.999, NaN,23.868,   NaN,16.67,1015.17,94.69,16.98,357.6,0.5,9.8,10.1,327.8,331.0,9.0,9.3,NaN, NaN,13.2,321.2,334.2,1121300530,1121300530,1,1.6,001329,001330,329.5,33.483853,-122.533511,1.48,NaN,NaN,17.411, NaN,NaN,NaN, NaN, NaN
20050714,002240,1310065,33.484148,-122.533695,17.0,17.409,32.983,42.966,506.56,0.0,0.708,17.038,17.000, NaN,23.870,   NaN,16.69,1015.07,94.91,16.98,354.8,359.9,9.6,9.8,324.7,330.2,8.8,9.1,NaN, NaN,13.6,313.8,300.8,1121300560,1121300560,1,2.0,001359,001360,331.3,33.484035,-122.533645,1.23,NaN,NaN,17.413, NaN,NaN,NaN, NaN, NaN
20050714,002310,1310096,33.484366,-122.533805,17.1,17.414,32.984,42.972,537.28,0.0,0.708,17.039,17.001, NaN,23.870,   NaN,16.71,1015.13,95.01,17.00,355.6,359.4,8.9,9.0,324.8,328.9,8.1,8.1,NaN, NaN,13.0,296.6,349.6,1121300590,1121300590,1,2.4,001390,001390,330.3,33.484243,-122.533760,1.41,NaN,NaN,17.418, NaN,NaN,NaN, NaN, NaN
20050714,002340,1310126,33.484566,-122.533965,17.3,17.415,32.980,42.968,551.89,0.0,0.746,17.039,17.003, NaN,23.867,   NaN,16.75,1014.95,95.20,17.05,354.2,357.6,8.8,8.6,323.1,326.7,8.0,7.8,NaN, NaN,13.1,340.3,322.3,1121300620,1121300620,1,1.8,001420,001420,328.9,33.484453,-122.533901,1.86,NaN,NaN,17.419, NaN,NaN,NaN, NaN, NaN
20050714,002410,1310156,33.484810,-122.534101,17.5,17.410,32.990,42.974,553.38,0.0,0.727,17.039,17.003, NaN,23.875,   NaN,16.65,1015.00,95.01,16.99,355.7,358.0,9.9,9.6,324.1,326.6,9.0,8.7,NaN, NaN,13.5,281.0,351.6,1121300650,1121300650,1,2.1,001450,001450,329.5,33.484693,-122.534041,1.78,NaN,NaN,17.414, NaN,NaN,-0.1, NaN, NaN
20050714,002440,1310186,33.485053,-122.534255,17.1,17.409,32.990,42.974,571.09,0.0,0.708,17.039,17.001, NaN,23.875,   NaN,16.63,1014.98,95.15,16.94,354.0,357.5,10.4,10.1,322.2,326.0,9.5,9.1,NaN, NaN,12.4,350.0,313.7,1121300680,1121300680,1,2.3,001480,001480,327.6,33.484938,-122.534191,1.58,NaN,NaN,17.413, NaN,NaN,-0.1, NaN, NaN
20050714,002511,1310217,33.485280,-122.534431,17.1,17.408,32.988,42.970,602.72,0.0,0.859,17.039,17.001, NaN,23.874,   NaN,16.63,1015.07,95.26,16.96,354.8,0.2,10.2,10.3,321.9,327.7,9.3,9.3,NaN, NaN,14.2,343.3,329.4,1121300711,1121300710,1,0.9,001510,001510,326.8,33.485168,-122.534365,2.31,NaN,NaN,17.412, NaN,NaN,-0.2, NaN, NaN
20050714,002540,1310245,33.485495,-122.534578,16.8,17.407,32.988,42.970,639.75,0.0,0.689,17.039,17.001, NaN,23.875,   NaN,16.70,1015.11,95.47,16.98,357.9,0.2,9.3,9.6,325.7,328.2,8.3,8.7,NaN, NaN,13.6,330.7,331.1,1121300740,1121300740,1,2.1,001539,001540,331.0,33.485391,-122.534541,1.88,NaN,NaN,17.411, NaN,NaN,-0.2, NaN, NaN
20050714,002610,1310276,33.485748,-122.534740,16.9,17.407,32.991,42.973,641.34,0.0,0.689,17.039,17.000, NaN,23.877,   NaN,16.67,1015.02,95.18,16.97,358.2,0.3,10.0,10.5,327.5,329.9,9.1,9.6,NaN, NaN,13.1,302.1,323.4,1121300770,1121300770,1,2.2,001570,001570,328.5,33.485633,-122.534683,1.31,NaN,NaN,17.411, NaN,NaN,1.0, NaN, NaN
20050714,002640,1310306,33.485883,-122.534856,17.1,17.407,33.000,42.984,626.79,0.0,0.670,17.039,16.999, NaN,23.884,   NaN,16.57,1015.07,94.90,16.91,3.5,3.8,11.0,11.5,332.9,333.8,10.5,10.8,NaN, NaN,13.9,32.3,12.4,1121300800,1121300800,1,1.0,001599,001600,329.5,33.485773,-122.534785,1.41,NaN,NaN,17.411, NaN,NaN,9.3, NaN, NaN
20050714,002710,1310336,33.485983,-122.534898,17.4,17.407,32.988,42.969,629.32,0.0,0.689,17.038,16.999, NaN,23.874,   NaN,16.57,1014.82,94.94,16.88,0.1,4.0,10.6,10.9,330.1,334.1,10.2,10.5,4013.5, NaN,13.5,244.7,12.1,1121300830,1121300830,1,0.5,001629,001630,328.4,33.485858,-122.534840,0.38,NaN,NaN,17.411, NaN,NaN,13.2, NaN, NaN
20050714,002740,1310366,33.486043,-122.534951,17.1,17.407,32.989,42.971,637.42,0.0,0.670,17.039,17.000, NaN,23.875,   NaN,16.70,1015.07,94.95,16.93,0.9,3.1,9.4,9.9,328.7,331.0,9.1,9.7,4013.5, NaN,14.0,46.9,23.3,1121300860,1121300860,1,0.9,001660,001660,323.6,33.485928,-122.534881,0.35,NaN,NaN,17.411, NaN,NaN,12.6, NaN, NaN
20050714,002810,1310395,33.486098,-122.535021,17.3,17.407,32.988,42.969,627.98,0.0,0.689,17.039,17.000, NaN,23.874,   NaN,16.72,1014.97,94.71,16.99,5.1,7.3,9.3,9.9,328.1,330.2,9.0,9.7,4005.5, NaN,13.8,241.2,254.0,1121300890,1121300890,1,1.1,001690,001690,318.5,33.485983,-122.534938,0.47,NaN,NaN,17.411, NaN,NaN,12.2, NaN, NaN
20050714,002840,1310426,33.486128,-122.535128,17.1,17.407,32.987,42.968,628.20,0.0,0.689,17.039,17.001, NaN,23.874,   NaN,16.68,1015.08,94.61,16.98,8.8,13.4,9.9,10.2,327.6,332.1,9.6,10.0,4013.5, NaN,13.5,288.9,199.9,1121300920,1121300920,1,0.5,001720,001720,311.6,33.486021,-122.535018,0.77,NaN,NaN,17.411, NaN,NaN,12.2, NaN, NaN
20050714,002910,1310456,33.486128,-122.535215,17.1,17.407,32.986,42.968,661.03,0.0,0.689,17.039,17.001, NaN,23.873,   NaN,16.66,1014.93,94.48,16.97,17.5,18.0,10.2,10.6,330.2,330.5,10.0,10.4,4014.5, NaN,13.5,8.3,286.0,1121300950,1121300950,1,0.4,001750,001750,306.1,33.486030,-122.535101,0.45,NaN,NaN,17.411, NaN,NaN,12.4, NaN, NaN
20050714,002940,1310486,33.486126,-122.535315,17.2,17.405,32.986,42.965,688.33,0.0,0.689,17.039,17.001, NaN,23.873,   NaN,16.64,1014.97,94.26,16.95,25.1,23.4,10.7,11.4,331.8,330.1,10.5,11.2,4013.5, NaN,12.8,5.6,334.8,1121300980,1121300980,1,0.8,001779,001780,303.8,33.486025,-122.535205,0.15,NaN,NaN,17.409, NaN,NaN,4.7, NaN, NaN
20050714,003010,1310516,33.486093,-122.535425,17.2,17.406,32.988,42.968,656.05,0.0,0.689,17.039,17.000, NaN,23.874,   NaN,16.62,1014.95,94.06,16.90,27.4,27.0,10.7,11.8,331.8,331.2,10.6,11.8,4013.5, NaN,14.0,226.5,343.1,1121301010,1121301010,1,0.8,001810,001810,301.5,33.485998,-122.535315,0.55,NaN,NaN,17.410, NaN,NaN,8.7, NaN, NaN
20050714,003040,1310545,33.486055,-122.535603,16.9,17.406,32.982,42.962,622.94,0.0,0.708,17.039,17.000, NaN,23.870,   NaN,16.66,1014.99,93.84,16.93,23.7,26.4,10.6,11.6,329.8,332.2,10.5,11.6,4013.5, NaN,13.4,234.7,242.7,1121301040,1121301040,1,2.6,001840,001840,307.6,33.485956,-122.535493,0.53,NaN,NaN,17.410, NaN,NaN,21.6, NaN, NaN
20050714,003110,1310575,33.486091,-122.535735,17.2,17.407,32.983,42.963,606.41,0.0,0.689,17.039,17.001, NaN,23.870,   NaN,16.66,1014.95,93.58,16.96,16.7,19.7,10.4,11.2,327.8,330.8,10.2,11.0,4005.5, NaN,14.2,39.2,320.1,1121301070,1121301070,1,0.5,001870,001870,315.5,33.485978,-122.535645,0.99,NaN,NaN,17.411, NaN,NaN,38.9, NaN, NaN
20050714,003140,1310606,33.486160,-122.535853,17.0,17.409,32.984,42.966,587.83,0.0,0.689,17.039,17.002, NaN,23.871,   NaN,16.69,1014.98,93.45,16.97,1.6,9.7,10.3,10.7,320.4,328.8,10.0,10.3,4017.5, NaN,14.0,263.9,327.3,1121301100,1121301100,1,1.0,001900,001900,326.8,33.486035,-122.535798,0.67,NaN,NaN,17.413, NaN,NaN,54.6, NaN, NaN
20050714,003210,1310636,33.486263,-122.535975,16.7,17.410,32.983,42.967,567.49,0.0,0.689,17.040,17.006, NaN,23.870,   NaN,16.69,1015.11,93.33,16.98,357.5,0.3,10.6,11.0,324.8,327.6,10.2,10.5,4005.5, NaN,12.6,259.3,265.5,1121301130,1121301130,1,2.3,001930,001930,329.1,33.486136,-122.535905,0.84,NaN,NaN,17.414, NaN,NaN,69.1, NaN, NaN
20050714,003241,1310666,33.486408,-122.535986,16.8,17.411,32.985,42.969,556.38,0.0,0.670,17.040,17.003, NaN,23.871,   NaN,16.70,1015.09,93.31,16.99,354.7,357.9,11.0,11.0,324.0,327.4,10.6,10.6,4005.5, NaN,13.0,344.4,27.3,1121301161,1121301160,1,2.3,001960,001960,328.6,33.486283,-122.535943,0.37,NaN,NaN,17.415, NaN,NaN,84.6, NaN, NaN
20050714,003310,1310696,33.486545,-122.536068,17.4,17.406,32.988,42.968,543.43,0.0,0.689,17.041,17.006, NaN,23.874,   NaN,16.69,1014.83,93.34,16.97,358.1,2.3,10.6,10.9,324.2,328.6,10.1,10.4,4013.5, NaN,12.7,340.7,343.6,1121301190,1121301190,1,1.2,001990,001990,321.5,33.486425,-122.535998,0.82,NaN,NaN,17.410, NaN,NaN,100.0, NaN, NaN
20050714,003340,1310725,33.486665,-122.536170,17.2,17.409,32.985,42.968,536.89,0.0,0.708,17.040,17.005, NaN,23.871,   NaN,16.71,1014.83,93.48,17.00,5.9,7.8,10.5,10.9,326.8,328.7,9.9,10.3,4020.5, NaN,13.4,345.6,333.1,1121301220,1121301220,1,1.5,002020,002020,317.5,33.486556,-122.536096,0.90,NaN,NaN,17.413, NaN,NaN,118.3, NaN, NaN
20050714,003410,1310755,33.486753,-122.536293,17.3,17.409,32.984,42.967,530.40,0.0,0.670,17.040,17.005, NaN,23.871,   NaN,16.69,1014.80,93.48,17.01,10.7,13.0,11.0,11.4,329.2,331.6,10.5,10.8,141.1, NaN,13.5,232.9,253.4,1121301250,1121301250,1,0.3,002050,002050,314.3,33.486648,-122.536206,0.98,NaN,NaN,17.413, NaN,NaN,139.3, NaN, NaN
20050714,003440,1310786,33.486825,-122.536426,17.3,17.409,32.983,42.965,518.92,0.0,0.727,17.041,17.005, NaN,23.870,   NaN,16.70,1014.89,93.63,16.98,12.4,15.8,10.4,11.2,329.5,332.9,9.9,10.7,163.8, NaN,13.3,28.4,34.8,1121301280,1121301280,1,0.7,002079,002080,314.1,33.486716,-122.536331,0.98,NaN,NaN,17.413, NaN,NaN,160.0, NaN, NaN
20050714,003511,1310816,33.486895,-122.536591,17.2,17.409,32.977,42.959,526.27,0.0,0.689,17.039,17.007, NaN,23.866,   NaN,16.73,1014.80,93.73,17.03,15.0,17.3,9.8,10.7,332.5,334.7,9.4,10.3,178.8, NaN,12.8,18.6,328.4,1121301311,1121301311,1,1.0,002110,002111,319.8,33.486781,-122.536508,0.87,NaN,NaN,17.413, NaN,NaN,175.2, NaN, NaN
20050714,003540,1310846,33.487026,-122.536728,16.9,17.410,32.982,42.966,522.27,0.0,0.689,17.042,17.006, NaN,23.869,   NaN,16.72,1015.00,93.77,17.00,11.0,14.1,10.6,10.8,332.0,335.2,10.1,10.2,4014.5, NaN,13.2,356.8,27.6,1121301340,1121301340,1,1.2,002140,002140,324.1,33.486893,-122.536660,NaN,NaN,NaN,17.414, NaN,NaN,190.3, NaN, NaN
20050714,003610,1310875,33.487118,-122.536868,17.2,17.413,32.984,42.970,495.99,0.0,0.670,17.041,17.009, NaN,23.870,   NaN,16.67,1014.85,93.71,16.98,10.3,12.2,10.8,11.0,334.2,336.1,10.3,10.5,4005.5, NaN,12.5,91.4,31.4,1121301370,1121301370,1,0.8,002169,002170,322.3,33.486988,-122.536780,1.20,NaN,NaN,17.417, NaN,NaN,205.8, NaN, NaN